sat.trackr.live / text

‹ back to catalog

STARLINK-30329

NORAD 57635 · 2023-122D

PAYLOAD ACTIVE UNKNOWN

§ Identity

Operator
Country
US
Launch date
2023-08-17
Launch site
AFETR
Launch vehicle
Mass (kg)
RCS (m²)

Purposes: comms

External: N2YO · Heavens-Above · Gunter

§ Orbital elements

Epoch: 2026-05-24T23:54:48.223008Z

Period
94.27 min
Inclination
43.0035°
Eccentricity
0.0001527
Mean motion
15.27567040 rev/d
Perigee alt
482.0 km
Apogee alt
484.1 km
Semi-major
6,861.2 km
B*
1.9418e-4
RAAN
21.8580°
Arg perigee
273.9507°
Mean anomaly
86.1170°
Rev number
15,387

§ Raw data

STARLINK-303291 57635U 23122D   26144.99639147  .00005083  00000+0  19418-3 0  99922 57635  43.0035  21.8580 0001527 273.9507  86.1170 15.27567040153879

JSON: /api/v1/satellites/57635 · /tle

For live sub-satellite position, see the globe view (requires WebGL).

§ Visibility from observer

Set your observer location to see the next 7 days of passes ≥ 10°. The values pass through the URL so the page stays shareable.

No JS? Fill the form by hand. The geolocation button needs JavaScript.